Regional Weather Roundup
Issued by NWS Northern Indiana

Home | Current Version | Previous Version | Graphics & Text | Print | Product List | Glossary On
Versions: 1 2 3 4 5 6 7 8 9 10 11 12 13 14 15 16 17 18 19 20 21 22 23 24 25 26 27 28 29 30 31 32 33 34 35 36 37 38 39 40 41 42 43 44 45 46 47 48 49 50
000
ASUS43 KIWX 230110
RWRIWX

KIWX WEATHER ROUNDUP
NATIONAL WEATHER SERVICE NORTHERN INDIANA
900 PM EDT THU JUN 22 2017

NOTE: "FAIR" INDICATES FEW OR NO CLOUDS BELOW 12,000 FEET WITH NO
SIGNIFICANT WEATHER AND/OR OBSTRUCTIONS TO VISIBILITY.

* THESE STATIONS ARE NOT UNDER NWS QUALITY CONTROL. THEY ALSO MAY NOT
  REPORT WEATHER SUCH AS PRECIPITATION OR FOG.

INZ001>027-230200-
NORTHERN INDIANA

CITY           SKY/WX    TMP DP  RH WIND       PRES   REMARKS
GARY*          PTCLDY    81  70  69 S14       29.74S
VALPARAISO     MOCLDY    80  71  74 S12       29.77F
MICHIGAN CITY* PTCLDY    77  68  73 S13G18    29.75F
LAPORTE*       CLOUDY    79  69  71 S13G20    29.77F
KNOX*          PTCLDY    79  59  50 S12       29.77F
SOUTH BEND     MOCLDY    77  71  82 S12       29.77F
ELKHART*       PTCLDY    79  70  73 S12       29.78F
GOSHEN         CLOUDY    78  67  68 S16       29.80S
MONTICELLO*    CLOUDY    76  68  77 S14G22    29.80S
LOGANSPORT*    MOCLDY    75  66  73 S20       29.83S
ROCHESTER*     PTCLDY    79  70  73 S12G20    29.81F
WARSAW*        CLOUDY    77  68  73 S6        29.81F
AUBURN*        PTCLDY    79  64  61 S9        29.83S
FORT WAYNE     PTCLDY    78  66  66 S18G29    29.83R
HUNTINGTON*    PTCLDY    76  68  75 SW12G20   29.83S
PERU/GRISSOM   MOCLDY    77  69  77 S14       29.80F
MARION*        MOCLDY    75  66  73 S16       29.85S

$$
INZ028>050-230200-
CENTRAL INDIANA

CITY           SKY/WX    TMP DP  RH WIND       PRES   REMARKS
LAFAYETTE      CLOUDY    75  69  81 SW5       29.81S
KOKOMO*        CLOUDY    76  68  76 SW15      29.84S
MUNCIE*        MOCLDY    77  66  68 S14G24    29.85F
INDIANAPOLIS   LGT RAIN  74  68  81 S18       29.84F

$$
MIZ043>046-050>051-056>058-064>065-071>073-077>080-230200-
SOUTHWEST LOWER MICHIGAN

CITY           SKY/WX    TMP DP  RH WIND       PRES   REMARKS
BATTLE CREEK   MOCLDY    79  71  76 SW14      29.78S
BENTON HARBOR  CLOUDY    81  69  67 S12G20    29.73F
COLDWATER*     CLOUDY    76  72  88 S3        29.80R
HILLSDALE*     RAIN      77  68  73 SW8       29.81S
HOLLAND        CLOUDY    74  69  85 S7        29.74F
GRAND RAPIDS   LGT RAIN  74  72  93 S8        29.75S
KALAMAZOO      MOCLDY    78  68  71 S12G21    29.77S
STURGIS*       CLOUDY    75  71  86 SW10      29.79S
THREE RIVERS*  FAIR      77  69  75 SW9G16    29.79R

$$
OHZ001>008-015>018-024>025-230200-
NORTHWEST OHIO

CITY           SKY/WX    TMP DP  RH WIND       PRES   REMARKS
WAUSEON*       MOCLDY    81  68  65 SW14      29.82R
DEFIANCE       MOCLDY    80  66  62 SW14G25   29.82R
FINDLAY        PTCLDY    81  65  58 SW16G31   29.84R
TOLEDO EXPRESS CLOUDY    79  69  71 SW13      29.81R
TOLEDO METCALF CLOUDY    80  70  71 SW13G22   29.83R
LIMA           MOCLDY    78  67  68 S14G24    29.86S

$$
AND FOR LAKE MICHIGAN COASTAL AND OPEN LAKE BUOY OBSERVATIONS

STATION/POSITION TEMP    WIND        PRES    VSBY  WAVE
                 AIR SEA DIR/SP/G                  HT/PER
                 (F)     (DEG/KT/KT) (MB)    (MI)  (FT/S)
CALUMET HARBOR    80     200/ 10/ 16 1006.2S
MICHIGAN CITY     79     170/ 15/ 19   N/A
BURNS HARBOR      80     190/ 21/ 28 1007.1F
SOUTH LAKE BUOY   66 61  120/  8/ 10 1006.0          1/ 4
4 MI NW BRIDGMAN  76 69  210/ 16/ 19 1006.4          2/ 3
MICHIGAN CITY     76 68  190/ 14/ 19   N/A           2/ 3

$$
&&




USA.gov is the U.S. government's official web portal to all federal, state and local government web resources and services.